Location: ???????
(55.9142°N, 37.8256°E)
Time: 01:56:38
(UTC+00:00)

Cosmos 1805 - Visible Passes

Search period start: 19 July 2024 00:00
Search period end: 29 July 2024 00:00
Orbit: 485 x 491 km, 82.5° (Epoch: 18 July)

Date Brightness Start Highest point End Pass type
(mag) Time Alt. Az. Time Alt. Az. Time Alt. Az.
20 Jul 5.8 00:13:02 10° SE 00:15:25 17° E 00:17:48 10° NE visible
20 Jul 6.0 23:50:30 10° ESE 23:51:57 12° E 23:53:23 10° ENE visible
24 Jul 4.7 00:12:13 10° SSE 00:15:30 32° E 00:18:49 10° NNE visible
24 Jul 5.3 23:48:56 10° SE 23:51:51 23° E 23:54:48 10° NE visible
25 Jul 5.7 23:25:50 10° SE 23:28:13 17° E 23:30:36 10° NE visible
26 Jul 5.9 23:03:07 10° ESE 23:04:34 12° E 23:06:01 10° ENE visible
28 Jul 3.4 00:11:38 10° S 00:15:16 67° E 00:18:56 10° NNE visible
28 Jul 4.0 23:47:55 10° SSE 23:51:25 45° E 23:54:58 10° NNE visible
